Location: Lancaster
(34.6980°N, 118.1360°W)
Time: 05:19:16
(UTC-08:00)

Vanguard 2 - Visible Passes

Search period start: 21 February 2018 00:00
Search period end: 03 March 2018 00:00
Orbit: 553 x 2939 km, 32.9° (Epoch: 20 February)

Date Brightness Start Highest point End Pass type
(mag) Time Alt. Az. Time Alt. Az. Time Alt. Az.
21 Feb 8.1 19:19:23 10° W 19:28:30 78° S 19:30:24 47° ESE visible
21 Feb 10.5 21:31:07 10° W 21:31:51 13° W 21:31:51 13° W visible
22 Feb 7.9 19:37:46 10° W 19:46:36 73° S 19:47:37 62° SE visible
23 Feb 8.1 19:56:08 10° W 20:04:39 65° SSW 20:04:49 64° S visible
24 Feb 8.9 18:01:38 10° W 18:13:35 81° S 18:20:29 10° E visible
24 Feb 8.5 20:14:32 10° W 20:22:03 52° SW 20:22:03 52° SW visible
25 Feb 8.8 18:20:05 10° W 18:31:46 79° S 18:37:52 14° E visible
25 Feb 9.1 20:32:58 10° W 20:39:18 38° SW 20:39:18 38° SW visible
26 Feb 8.8 18:38:32 10° W 18:49:54 74° SSW 18:55:07 19° ESE visible
26 Feb 9.7 20:51:33 10° W 20:56:33 27° WSW 20:56:33 27° WSW visible
27 Feb 8.9 18:57:00 10° W 19:07:57 65° SSW 19:12:24 23° ESE visible
27 Feb 10.2 21:10:25 10° W 21:13:50 19° WSW 21:13:50 19° WSW visible
28 Feb 9.0 19:15:27 10° W 19:25:54 54° SSW 19:29:42 27° SE visible
28 Feb 10.6 21:29:58 10° WSW 21:31:09 12° WSW 21:31:09 12° WSW visible
01 Mar 9.3 19:33:59 10° W 19:43:44 43° SSW 19:47:02 27° SSE visible
02 Mar 9.5 19:52:38 10° W 20:01:23 33° SW 20:04:24 24° S visible
